Location: LDNL
(36.4545°S, 141.6685°E)
Time: 14:16:22
(UTC+11:00)

Transit 2A - All Passes

Search period start: 23 January 2022 00:00
Search period end: 02 February 2022 00:00
Orbit: 591 x 967 km, 66.7° (Epoch: 22 January)

Date Brightness Start Highest point End Pass type
(mag) Time Alt. Az. Time Alt. Az. Time Alt. Az.
23 Jan - 00:48:12 10° N 00:52:31 40° ENE 00:56:38 10° SE visible
23 Jan - 02:32:36 10° W 02:35:45 18° SW 02:38:50 10° S visible
23 Jan - 09:36:35 10° S 09:40:08 21° SE 09:43:54 10° ENE daylight
23 Jan - 11:18:49 10° SW 11:23:24 44° WNW 11:28:24 10° N daylight
24 Jan - 00:14:39 10° NNE 00:18:24 25° ENE 00:21:59 10° SE visible
24 Jan - 01:57:29 10° WNW 02:01:22 27° SW 02:05:08 10° S visible
24 Jan - 09:03:11 10° SSE 09:05:43 14° SE 09:08:20 10° E daylight
24 Jan - 10:44:26 10° SSW 10:49:12 70° WNW 10:54:28 10° NNE daylight
24 Jan - 23:41:38 10° NE 23:44:19 15° ENE 23:46:54 10° ESE visible
25 Jan - 01:22:43 10° NW 01:27:03 43° WSW 01:31:14 10° SSE visible
25 Jan - 10:10:12 10° SSW 10:14:59 76° ESE 10:20:16 10° NNE daylight
25 Jan - 11:56:29 10° W 11:57:39 11° WNW 11:58:49 10° WNW daylight
26 Jan - 00:48:15 10° NW 00:52:48 70° WSW 00:57:10 10° SSE visible
26 Jan - 09:36:06 10° SSW 09:40:45 49° ESE 09:45:49 10° NE daylight
26 Jan - 11:20:21 10° WSW 11:23:35 17° WNW 11:26:59 10° NNW daylight
27 Jan - 00:14:02 10° NNW 00:18:35 72° ENE 00:22:57 10° SSE visible
27 Jan - 02:00:44 10° WSW 02:02:09 11° SW 02:03:34 10° SSW visible
27 Jan - 09:02:08 10° S 09:06:27 33° ESE 09:11:06 10° ENE daylight
27 Jan - 10:45:22 10° SW 10:49:28 27° WNW 10:53:53 10° NNW daylight
27 Jan - 23:40:05 10° N 23:44:25 43° ENE 23:48:34 10° SE visible
28 Jan - 01:24:46 10° W 01:27:41 17° SW 01:30:35 10° S visible
28 Jan - 08:28:20 10° S 08:32:06 22° SE 08:36:05 10° ENE daylight
28 Jan - 10:10:44 10° SW 10:15:18 41° WNW 10:20:19 10° N daylight
28 Jan - 23:06:28 10° NNE 23:10:17 27° ENE 23:13:58 10° SE visible
29 Jan - 00:49:33 10° WNW 00:53:18 25° SW 00:56:57 10° S visible
29 Jan - 07:54:50 10° SSE 07:57:41 15° SE 08:00:39 10° E daylight
29 Jan - 09:36:19 10° SW 09:41:08 65° WNW 09:46:26 10° NNE daylight
29 Jan - 22:33:20 10° NNE 22:36:11 17° ENE 22:38:58 10° ESE visible
30 Jan - 00:14:44 10° NW 00:18:58 39° WSW 00:23:04 10° SSE visible
30 Jan - 07:22:21 10° SE 07:23:11 10° SE 07:24:02 10° ESE daylight
30 Jan - 09:02:03 10° SSW 09:06:55 82° ESE 09:12:16 10° NNE daylight
30 Jan - 23:40:13 10° NW 23:44:42 64° WSW 23:49:02 10° SSE visible
31 Jan - 08:27:56 10° SSW 08:32:40 54° ESE 08:37:52 10° NE daylight
31 Jan - 10:12:23 10° WSW 10:15:29 16° WNW 10:18:44 10° NW daylight
31 Jan - 23:05:57 10° NNW 23:10:28 79° ENE 23:14:50 10° SSE visible
01 Feb - 00:53:20 10° WSW 00:54:06 10° SW 00:54:53 10° SW visible
01 Feb - 07:53:56 10° S 07:58:23 35° ESE 08:03:13 10° NE daylight
01 Feb - 09:37:20 10° SW 09:41:23 25° WNW 09:45:44 10° NNW daylight
01 Feb - 22:31:57 10° N 22:36:18 47° ENE 22:40:29 10° SE visible
